EW7074 Weather Reports


Display with metric or nautical units.
time (UTC)temp
F
wind
direction
speed
MPH
gust
MPH
rain 1hr
in
rain 24hr
in
rain mn
in
humidity
%
barometer
mb
20260508135151 66 274 0.0 0.0 0.00 0.47 0.47 53 1008.8
20260508134648 66 235 0.0 0.0 0.00 0.47 0.47 54 1008.8
20260508134139 65 297 0.0 0.0 0.00 0.47 0.47 56 1008.9
20260508133639 65 308 0.0 0.0 0.00 0.47 0.47 58 1008.8
20260508133124 65 268 0.0 0.0 0.00 0.47 0.47 58 1008.9
20260508132610 65 265 0.0 0.0 0.00 0.47 0.47 59 1008.7
20260508132102 65 297 0.0 0.0 0.00 0.47 0.47 60 1008.8
20260508131546 65 328 0.0 0.0 0.00 0.47 0.47 61 1008.9
20260508131036 65 278 0.0 0.0 0.00 0.47 0.47 62 1009.0
20260508130753 65 345 0.0 0.0 0.00 0.47 0.47 62 1008.8
20260508130238 65 297 0.0 0.0 0.00 0.47 0.47 63 1008.9
20260508125456 64 306 0.0 0.0 0.00 0.47 0.47 63 1008.9
20260508124947 64 263 0.0 0.0 0.00 0.47 0.47 63 1008.9
20260508124440 64 307 0.0 0.0 0.00 0.47 0.47 64 1008.8
20260508123916 64 285 0.0 0.0 0.00 0.47 0.47 64 1008.6
20260508123406 64 303 0.0 0.0 0.00 0.47 0.47 65 1008.7
20260508123126 64 308 0.0 0.0 0.00 0.47 0.47 67 1008.5
20260508122351 64 237 0.0 0.0 0.00 0.47 0.47 67 1008.5
20260508121839 63 308 0.0 0.0 0.00 0.47 0.47 68 1008.5
20260508121324 63 326 0.0 0.0 0.00 0.47 0.47 67 1008.5
20260508120809 63 280 0.0 0.0 0.00 0.47 0.47 67 1008.5
20260508120525 63 308 0.0 0.0 0.00 0.47 0.47 68 1008.6
20260508115745 63 266 0.0 0.0 0.00 0.47 0.47 70 1008.5
20260508115239 63 254 0.0 0.0 0.00 0.47 0.47 70 1008.3
20260508114739 62 314 0.0 0.0 0.00 0.47 0.47 71 1008.2
20260508114508 62 312 0.0 0.0 0.00 0.47 0.47 73 1008.3
20260508113737 62 317 0.0 0.0 0.00 0.47 0.47 73 1008.3
20260508113230 62 267 0.0 0.0 0.00 0.47 0.47 72 1008.3
20260508112731 62 273 0.0 0.0 0.00 0.47 0.47 71 1008.4
20260508112212 62 282 0.0 0.0 0.00 0.47 0.47 71 1008.4
20260508111706 62 275 0.0 0.0 0.00 0.47 0.47 71 1008.5
20260508111204 62 289 0.0 0.0 0.00 0.47 0.47 72 1008.5
20260508110704 62 268 0.0 0.0 0.00 0.47 0.47 72 1008.4
20260508110433 61 322 0.0 0.0 0.00 0.47 0.47 72 1008.4
20260508105657 61 283 0.0 0.0 0.00 0.47 0.47 74 1008.4
20260508105157 61 278 0.0 0.0 0.00 0.47 0.47 75 1008.3
20260508104655 61 268 0.0 0.0 0.00 0.47 0.47 77 1008.3
20260508104145 61 292 0.0 0.0 0.00 0.47 0.47 78 1008.2
20260508103646 61 250 0.0 0.0 0.00 0.47 0.47 79 1008.1
20260508103145 61 274 0.0 0.0 0.00 0.47 0.47 79 1008.0
20260508102645 61 243 0.0 0.0 0.00 0.47 0.47 80 1007.7
20260508102418 61 237 0.0 0.0 0.00 0.47 0.47 80 1007.7
20260508101639 61 233 0.0 0.0 0.00 0.47 0.47 80 1007.6
20260508100638 62 291 0.0 0.0 0.00 0.47 0.47 80 1007.4
20260508100145 62 270 0.0 0.0 0.00 0.47 0.47 80 1007.2
20260508100138 62 195 0.0 0.0 0.00 0.47 0.47 80 1007.4
20260508095407 62 224 0.0 0.0 0.00 0.47 0.47 79 1007.0
20260508094635 62 249 0.0 0.0 0.00 0.47 0.47 79 1006.9
20260508094135 62 263 0.0 0.0 0.00 0.47 0.47 79 1006.8
20260508093636 62 285 0.0 0.0 0.00 0.47 0.47 79 1006.6
20260508093135 62 306 0.0 0.0 0.00 0.47 0.47 79 1006.6
20260508092635 62 291 0.0 0.0 0.00 0.47 0.47 79 1006.5
20260508092407 62 268 0.0 0.0 0.00 0.47 0.47 80 1006.5
20260508091908 62 289 0.0 0.0 0.00 0.47 0.47 81 1006.4
20260508091134 62 291 0.0 0.0 0.00 0.47 0.47 82 1006.5
20260508090634 62 246 0.0 0.0 0.00 0.47 0.47 85 1006.3
20260508090134 62 270 0.0 0.0 0.00 0.47 0.47 87 1006.2
20260508085633 61 245 0.0 0.0 0.00 0.47 0.47 88 1006.2
20260508085134 61 235 0.0 0.0 0.00 0.47 0.47 88 1006.0
20260508084904 61 264 0.0 0.0 0.00 0.47 0.47 90 1005.9
20260508084129 60 299 0.0 0.0 0.00 0.47 0.47 90 1005.8
20260508083627 60 229 0.0 0.0 0.00 0.47 0.47 91 1005.6
20260508083126 60 235 0.0 0.0 0.00 0.47 0.47 91 1005.5
20260508082623 60 220 0.0 0.0 0.00 0.47 0.47 91 1005.4
20260508082123 60 224 0.0 0.0 0.00 0.47 0.47 91 1005.3
20260508081618 60 211 0.0 0.0 0.00 0.47 0.47 91 1005.3
20260508081113 60 159 0.0 0.0 0.00 0.47 0.47 91 1005.2
20260508080613 60 157 0.0 0.0 0.00 0.47 0.47 91 1005.2
20260508080111 60 157 0.0 0.0 0.00 0.47 0.47 91 1005.2
20260508075611 60 157 0.0 0.0 0.00 0.47 0.47 91 1005.1
20260508075111 59 65 0.0 0.0 0.00 0.47 0.47 91 1004.9
20260508074839 59 65 0.0 0.0 0.00 0.47 0.47 91 1004.7
20260508074110 59 65 0.0 0.0 0.00 0.47 0.47 91 1004.6
20260508073608 59 65 0.0 0.0 0.00 0.47 0.47 91 1004.5
20260508073105 59 65 0.0 0.0 0.00 0.47 0.47 91 1004.3
20260508072604 59 65 1.0 4.0 0.01 0.47 0.47 91 1004.4
20260508072053 59 65 3.0 7.0 0.01 0.47 0.47 91 1004.2
20260508071549 59 59 4.0 7.0 0.03 0.47 0.47 91 1003.8
20260508071039 59 62 4.0 7.0 0.03 0.47 0.47 90 1003.9
20260508070530 59 70 4.0 6.0 0.05 0.47 0.47 91 1004.1
20260508070020 60 68 1.0 6.0 0.07 0.47 0.47 90 1004.2
20260508065507 60 39 0.0 4.0 0.09 0.47 0.47 90 1004.1
20260508064954 60 38 0.0 2.0 0.09 0.47 0.47 90 1004.1
20260508064443 60 253 0.0 0.0 0.11 0.47 0.47 90 1004.0
20260508064158 60 249 0.0 2.0 0.14 0.47 0.47 90 1004.5
20260508063418 60 249 0.0 2.0 0.17 0.47 0.47 90 1004.5
20260508062908 60 249 0.0 10.0 0.24 0.47 0.47 90 1004.7
20260508062355 59 249 1.0 10.0 0.26 0.46 0.46 90 1004.6
20260508061845 60 249 4.0 17.0 0.26 0.46 0.46 90 1005.1
20260508061335 60 245 8.0 17.0 0.25 0.44 0.44 89 1005.3
20260508061056 60 214 11.0 22.0 0.23 0.42 0.42 89 1005.2
20260508060317 60 246 11.0 22.0 0.22 0.41 0.41 89 1004.6
20260508055757 60 210 10.0 20.0 0.20 0.39 0.39 89 1004.5
20260508055244 61 216 11.0 24.0 0.19 0.38 0.38 88 1004.4
20260508054732 61 276 12.0 23.0 0.16 0.35 0.37 88 1005.0
20260508054221 62 223 15.0 23.0 0.14 0.33 0.33 87 1004.3
20260508053942 63 191 11.0 39.0 0.15 0.33 0.33 87 1004.1
20260508053153 65 264 3.0 39.0 0.07 0.25 0.27 85 1004.3
20260508052645 69 228 0.0 0.0 0.03 0.20 0.20 89 1004.1
20260508052134 69 247 0.0 0.0 0.09 0.19 0.19 89 1003.5
20260508051625 69 231 0.0 0.0 0.15 0.19 0.19 88 1003.0
20260508051114 69 220 0.0 0.0 0.15 0.19 0.19 88 1003.0
20260508050604 69 216 0.0 0.0 0.15 0.19 0.19 88 1003.2
20260508050053 69 211 0.0 0.0 0.15 0.19 0.19 87 1002.9
20260508045544 69 230 0.0 0.0 0.15 0.19 0.19 87 1002.7
20260508045033 70 222 0.0 0.0 0.15 0.19 0.19 86 1002.3
20260508044524 70 324 0.0 0.0 0.15 0.19 0.19 85 1002.4
20260508044011 70 324 0.0 0.0 0.13 0.17 0.17 85 1002.4
20260508043458 70 324 0.0 0.0 0.13 0.17 0.17 84 1002.3
20260508042947 71 343 0.0 0.0 0.14 0.17 0.17 83 1002.1
20260508042710 71 309 0.0 0.0 0.17 0.17 0.17 82 1002.1
20260508041929 71 316 0.0 0.0 0.04 0.04 0.04 81 1002.1
20260508041418 71 313 0.0 0.0 0.04 0.04 0.04 82 1001.9
20260508035838 70 343 0.0 6.0 0.04 0.04 0.04 82 1001.3
20260508035557 70 325 0.0 6.0 0.04 0.04 0.04 82 1001.2
20260508034821 70 294 0.0 3.0 0.04 0.04 0.04 82 1001.3
20260508034552 71 308 0.0 3.0 0.04 0.04 0.04 82 1001.4
20260508033821 71 348 0.0 3.0 0.04 0.04 0.04 81 1001.8
20260508033322 71 310 0.0 6.0 0.03 0.03 0.03 81 1002.0
20260508032820 71 5 1.0 6.0 0.03 0.03 0.03 81 1002.0
20260508032551 71 316 1.0 7.0 0.00 0.00 0.00 81 1002.5
20260508031823 71 324 2.0 11.0 0.00 0.00 0.00 81 1002.5
20260508031320 70 311 1.0 11.0 0.00 0.00 0.00 82 1002.5
20260508030832 70 292 0.0 6.0 0.00 0.00 0.00 83 1002.5
20260508030558 70 324 0.0 0.0 0.00 0.00 0.00 83 1002.5
20260508025538 70 318 0.0 4.0 0.15 0.16 0.16 83 1002.5
20260508025306 70 28 0.0 4.0 0.16 0.16 0.16 84 1002.6
20260508024519 70 358 0.0 6.0 0.16 0.16 0.16 84 1002.5
20260508024017 70 0 0.0 6.0 0.16 0.16 0.16 84 1002.8
20260508023514 70 343 0.0 4.0 0.16 0.16 0.16 83 1002.8
20260508023000 70 339 2.0 9.0 0.15 0.15 0.16 83 1003.2
20260508022448 70 333 5.0 13.0 0.15 0.15 0.15 82 1003.0
20260508021937 70 232 6.0 23.0 0.15 0.15 0.15 81 1002.9
20260508021430 71 259 6.0 23.0 0.13 0.13 0.13 81 1003.3
20260508020904 72 277 9.0 21.0 0.10 0.10 0.10 78 1003.6
20260508020354 73 214 14.0 33.0 0.07 0.07 0.09 74 1004.0
20260508015844 77 214 15.0 33.0 0.01 0.01 0.01 64 1003.6
20260508015338 83 287 9.0 32.0 0.00 0.00 0.00 53 1003.6
20260508014837 86 235 3.0 17.0 0.00 0.00 0.00 51 1001.7
20260508014338 86 30 2.0 12.0 0.00 0.00 0.00 50 1000.6
20260508013838 86 339 2.0 12.0 0.00 0.00 0.00 50 1000.3
20260508013327 86 333 2.0 14.0 0.00 0.00 0.00 50 999.7
20260508012816 86 351 5.0 27.0 0.00 0.00 0.00 50 999.6
20260508012308 86 326 5.0 27.0 0.00 0.00 0.00 50 999.7
20260508011753 86 0 3.0 12.0 0.00 0.00 0.00 50 999.7
20260508011239 86 29 3.0 14.0 0.00 0.00 0.00 49 999.6
20260508010729 86 304 4.0 20.0 0.00 0.00 0.00 49 999.7
20260508010452 86 322 4.0 20.0 0.00 0.00 0.00 49 999.6
20260508005708 86 319 4.0 19.0 0.00 0.00 0.00 49 999.7
20260508005426 87 333 4.0 19.0 0.00 0.00 0.00 49 999.6
20260508004637 87 333 5.0 20.0 0.00 0.00 0.00 48 999.6
20260508004122 87 31 5.0 20.0 0.00 0.00 0.00 48 999.5
20260508003614 86 10 5.0 19.0 0.00 0.00 0.00 49 999.6
20260508003103 86 296 5.0 18.0 0.00 0.00 0.00 49 999.5
20260508002550 86 19 4.0 12.0 0.00 0.00 0.00 49 999.3
20260508002034 86 318 3.0 9.0 0.00 0.00 0.00 49 999.2
20260508001013 86 18 2.0 21.0 0.00 0.00 0.00 48 999.5
20260508000458 86 10 1.0 11.0 0.00 0.00 0.00 48 999.3
20260507235952 87 74 3.0 17.0 0.00 0.00 0.00 48 999.5
20260507235503 87 354 4.0 16.0 0.00 0.00 0.00 47 999.3
20260507235452 87 29 4.0 17.0 0.00 0.00 0.00 47 999.4
20260507234452 87 355 3.0 16.0 0.00 0.00 0.00 47 999.2
20260507233952 87 339 3.0 18.0 0.00 0.00 0.00 48 999.3
20260507233450 87 350 4.0 18.0 0.00 0.00 0.00 48 999.3
20260507232448 87 348 2.0 12.0 0.00 0.00 0.00 49 999.3
20260507231948 86 337 2.0 12.0 0.00 0.00 0.00 49 999.3
20260507231720 86 11 2.0 10.0 0.00 0.00 0.00 49 999.5
20260507230947 86 35 1.0 10.0 0.00 0.00 0.00 49 999.5
20260507230441 86 297 2.0 6.0 0.00 0.00 0.00 50 999.5
20260507225940 86 348 2.0 8.0 0.00 0.00 0.00 50 999.5
20260507225440 86 27 2.0 8.0 0.00 0.00 0.00 50 999.2
20260507224939 86 88 3.0 14.0 0.00 0.00 0.00 50 999.4
20260507224710 86 35 4.0 16.0 0.00 0.00 0.00 50 999.5
20260507223940 86 36 3.0 16.0 0.00 0.00 0.00 50 999.7
20260507223440 86 30 1.0 12.0 0.00 0.00 0.00 51 999.6
20260507222940 86 37 0.0 5.0 0.00 0.00 0.00 51 999.6
20260507222720 86 77 0.0 2.0 0.00 0.00 0.00 51 999.7
20260507221937 86 46 1.0 9.0 0.00 0.00 0.00 51 999.9
20260507221435 86 70 1.0 9.0 0.00 0.00 0.00 50 999.7
20260507220918 86 70 0.0 0.0 0.00 0.00 0.00 50 1000.0
20260507220649 87 78 0.0 2.0 0.00 0.00 0.00 50 1000.0
20260507215916 87 79 0.0 2.0 0.00 0.00 0.00 50 1000.0
20260507215411 87 36 0.0 7.0 0.00 0.00 0.00 50 1000.1
20260507214911 87 359 1.0 7.0 0.00 0.00 0.00 50 1000.1
20260507214412 87 337 0.0 6.0 0.00 0.00 0.00 50 1000.3
20260507213911 87 32 1.0 7.0 0.00 0.00 0.00 49 1000.2
20260507213643 87 35 1.0 7.0 0.00 0.00 0.00 49 1000.2
20260507212912 87 70 1.0 8.0 0.00 0.00 0.00 49 1000.2
20260507212412 87 355 1.0 9.0 0.00 0.00 0.00 49 1000.4
20260507211911 87 24 1.0 9.0 0.00 0.00 0.00 49 1000.3
20260507211412 88 359 0.0 6.0 0.00 0.00 0.00 48 1000.4
20260507210911 88 352 0.0 2.0 0.00 0.00 0.00 48 1000.5
20260507210411 88 316 1.0 7.0 0.00 0.00 0.00 48 1000.5
20260507205907 88 11 2.0 9.0 0.00 0.00 0.00 48 1000.5
20260507205402 88 328 2.0 9.0 0.00 0.00 0.00 47 1000.4
20260507205132 88 341 1.0 7.0 0.00 0.00 0.00 48 1000.4
20260507203849 89 329 1.0 9.0 0.00 0.00 0.00 47 1000.3
20260507203349 89 1 1.0 9.0 0.00 0.00 0.00 47 1000.5
20260507202847 89 310 2.0 9.0 0.00 0.00 0.00 46 1000.4
20260507202619 89 352 1.0 9.0 0.00 0.00 0.00 46 1000.4
20260507202454 89 17 1.0 9.0 0.00 0.00 0.00 46 1000.3
20260507201344 90 335 2.0 9.0 0.00 0.00 0.00 46 1000.3
20260507200844 90 326 1.0 8.0 0.00 0.00 0.00 46 1000.3
20260507200344 90 319 1.0 5.0 0.00 0.00 0.00 46 1000.2
20260507195840 90 339 2.0 10.0 0.00 0.00 0.00 46 1000.2
20260507195338 90 288 2.0 10.0 0.00 0.00 0.00 46 1000.0
20260507194838 89 330 2.0 9.0 0.00 0.00 0.00 47 1000.0
20260507193829 89 322 1.0 11.0 0.00 0.00 0.00 48 1000.0
20260507193323 89 60 1.0 7.0 0.00 0.00 0.00 49 1000.1
20260507192818 89 8 1.0 12.0 0.00 0.00 0.00 48 1000.2
20260507192316 89 4 1.0 12.0 0.00 0.00 0.00 48 1000.1
20260507191812 89 18 2.0 12.0 0.00 0.00 0.00 48 1000.2
20260507191305 89 344 3.0 12.0 0.00 0.00 0.00 47 1000.3
20260507190800 89 335 2.0 12.0 0.00 0.00 0.00 47 1000.4
20260507190249 89 10 1.0 7.0 0.00 0.00 0.00 48 1000.4
20260507185747 89 20 1.0 6.0 0.00 0.00 0.00 48 1000.3
20260507185237 89 337 1.0 5.0 0.00 0.00 0.00 48 1000.3
20260507184724 89 48 1.0 5.0 0.00 0.00 0.00 48 1000.5
20260507184217 89 4 1.0 5.0 0.00 0.00 0.00 48 1000.5
20260507183705 89 19 1.0 6.0 0.00 0.00 0.00 48 1000.6
20260507183201 89 330 1.0 5.0 0.00 0.00 0.00 48 1000.6
20260507182650 89 313 1.0 6.0 0.00 0.00 0.00 47 1000.6
20260507182140 89 333 1.0 8.0 0.00 0.00 0.00 47 1000.5
20260507181628 89 347 1.0 8.0 0.00 0.00 0.00 47 1000.6
20260507181118 89 345 2.0 11.0 0.00 0.00 0.00 47 1000.6
20260507180608 89 17 2.0 11.0 0.00 0.00 0.00 47 1000.4
20260507180327 89 25 1.0 7.0 0.00 0.00 0.00 48 1000.5
20260507175546 89 24 2.0 7.0 0.00 0.00 0.00 48 1000.4
20260507175307 89 332 2.0 7.0 0.00 0.00 0.00 48 1000.6
20260507174526 89 29 1.0 4.0 0.00 0.00 0.00 48 1000.6
20260507174014 89 352 1.0 5.0 0.00 0.00 0.00 48 1000.5
20260507173736 89 13 2.0 10.0 0.00 0.00 0.00 48 1000.6
20260507173224 89 335 2.0 10.0 0.00 0.00 0.00 47 1000.7
20260507172442 90 24 2.0 6.0 0.00 0.00 0.00 48 1000.7
20260507171931 90 2 2.0 8.0 0.00 0.00 0.00 48 1000.9
20260507171413 90 35 3.0 13.0 0.00 0.00 0.00 48 1001.0
20260507170905 90 291 3.0 13.0 0.00 0.00 0.00 48 1001.2
20260507170352 90 60 2.0 13.0 0.00 0.00 0.00 47 1001.0
20260507165851 90 328 3.0 15.0 0.00 0.00 0.00 47 1001.1
20260507165345 90 353 3.0 15.0 0.00 0.00 0.00 46 1001.2
20260507164327 90 279 6.0 16.0 0.00 0.00 0.00 46 1001.5
20260507163815 91 342 6.0 17.0 0.00 0.00 0.00 45 1001.6
20260507163300 91 303 5.0 17.0 0.00 0.00 0.00 45 1001.4
20260507162750 91 345 4.0 14.0 0.00 0.00 0.00 45 1001.6
20260507162239 91 38 5.0 21.0 0.00 0.00 0.00 45 1001.4
20260507161722 91 12 7.0 23.0 0.00 0.00 0.00 46 1001.7
20260507161208 90 337 5.0 18.0 0.00 0.00 0.00 46 1001.8
20260507160927 91 303 4.0 20.0 0.00 0.00 0.00 47 1002.0
20260507160138 91 329 5.0 20.0 0.00 0.00 0.00 47 1001.9
20260507155632 92 262 3.0 18.0 0.00 0.00 0.00 48 1001.9
20260507155128 91 339 2.0 12.0 0.00 0.00 0.00 49 1001.8
20260507154630 90 307 2.0 10.0 0.00 0.00 0.00 49 1001.9
20260507154128 89 312 3.0 14.0 0.00 0.00 0.00 51 1002.2
20260507153628 89 338 4.0 14.0 0.00 0.00 0.00 50 1002.3
20260507152622 90 317 3.0 17.0 0.00 0.00 0.00 51 1002.4
20260507152123 89 309 4.0 18.0 0.00 0.00 0.00 51 1002.6
20260507151623 89 328 3.0 18.0 0.00 0.00 0.00 52 1002.8
20260507151123 89 38 2.0 14.0 0.00 0.00 0.00 51 1002.8
20260507150621 89 8 2.0 12.0 0.00 0.00 0.00 52 1002.8
20260507150118 89 332 2.0 12.0 0.00 0.00 0.00 53 1003.0
20260507145618 88 262 4.0 17.0 0.00 0.00 0.00 53 1003.3
20260507145114 88 12 3.0 17.0 0.00 0.00 0.00 53 1003.4
20260507144613 88 351 2.0 12.0 0.00 0.00 0.00 53 1003.6
20260507144344 88 351 2.0 12.0 0.00 0.00 0.00 53 1003.7
20260507143612 88 2 2.0 10.0 0.00 0.00 0.00 54 1003.6
20260507143112 88 325 3.0 13.0 0.00 0.00 0.00 54 1004.0
20260507142619 87 333 2.0 9.0 0.00 0.00 0.00 55 1004.3
20260507142612 87 18 3.0 13.0 0.00 0.00 0.00 53 1004.0
20260507141839 87 350 2.0 12.0 0.00 0.00 0.00 55 1004.6
20260507141340 87 310 3.0 18.0 0.00 0.00 0.00 55 1004.6
20260507140839 87 18 2.0 18.0 0.00 0.00 0.00 56 1004.9
20260507140108 87 302 2.0 13.0 0.00 0.00 0.00 56 1004.9